Weather in Filinskoye

Russia / Nizhny Novgorod Oblast'     55°45′35″N   42°30′18″E
temp.,
°C
wind,
m/s
gust,
m/s
humid.,
%
clouds,
%
prec.,
mm/h
press.,
hPa
HPBL,
m
23 april, fri
fri2300:00+5sse310825 0.0 1020184
03:00+4sse37895 0.0 1020126
06:00+6sse4118325 0.0 1020247
09:00+12s595970 0.0 1020586
12:00+16ssw575050 0.1 10181694
15:00+15s5856100 2.0 10181121
18:00+13sse496573 0.4 1017512
21:00+8se310825 0.4 1016193
24 april, sat
sat2400:00+7se3108371 0.1 1015200
03:00+6se310855 0.1 1013188
06:00+7se4118879 0.2 1011308
09:00+12sse6116993 0.4 1009994
12:00+15sse685597 0.8 10061824
15:00+13sse4771100 3.3 1005891
18:00+10sw3585100 2.3 1002287
21:00+2wsw51096100 5.5 1004531
25 april, sun
sun2500:00+4wsw61197100 0.8 1003675
03:00+3wsw51097100 1.3 1003740
06:00+3wsw61397100 2.7 1003923
09:00+4w71379100 3.3 10051066
12:00+8w7125768 0.0 10071994
15:00+8w7124766 0.4 10082666
18:00+6wsw61164100 0.9 10091194
21:00+3sw512745 1.3 1011524
26 april, mon
mon2600:00+2sw410835 0.0 1011297
03:00+2ssw3989100 0.0 1011379
06:00+3sw4894100 0.1 1011604
09:00+4wsw467424 0.1 1012791
12:00+8wsw5745100 0.1 10122124
15:00+9sw4642100 0.1 10112062
18:00+7sw365880 0.3 1011409
21:00+3sw2274100 0.3 101118
27 april, tue
tue2700:00+2ssw227998 0.0 101040
03:00+1ssw228415 0.0 100922
06:00+1wsw2587100 0.1 1009173
09:00+6nw2465100 0.1 1009796
12:00+9w464148 0.1 10082181
15:00+10w343596 0.1 10072420
18:00+2wsw3798100 4.2 1008224
21:00+3ssw239299 7.3 100989